Miscellaneous Local Product
Issued by NWS Hastings, NE

Home | Current Version | Previous Version | Graphics & Text | Print | Product List | Glossary On
Versions: 1 2 3 4 5 6 7 8 9 10 11 12 13 14 15 16 17 18 19 20 21 22 23 24 25 26 27 28 29 30 31 32 33 34 35 36 37 38 39 40 41 42 43 44 45 46 47 48 49 50
000
AXUS43 KGID 070602
MISGRI

GID CWA HOURLY WEATHER ROUNDUP
NATIONAL WEATHER SERVICE HASTINGS NE
100 AM CDT THU MAY 07 2015

NOTE: "FAIR" INDICATES FEW OR NO CLOUDS BELOW 12,000 FEET WITH NO
SIGNIFICANT WEATHER AND/OR OBSTRUCTIONS TO VISIBILITY.

...SOUTH CENTRAL NEBRASKA...

CITY           SKY/WX    TMP DP  RH WIND       PRES   REMARKS
GRAND ISLAND   CLOUDY    61  57  87 S16G23    29.64R
HASTINGS       CLOUDY    64  61  90 S13G20    29.65R
KEARNEY        CLOUDY    61  55  82 S10       29.63R
ORD            CLOUDY    58  56  93 S7        29.62R
YORK           RAIN      61  57  88 S16G26    29.69R
AURORA         TSTM      59  58  98 S13       29.65F
LEXINGTON      PTCLDY    56  55  95 CALM      29.62R FOG
HOLDREGE       MOCLDY    58  56  91 S8        29.63R

...NEBRASKA PANHANDLE...

CITY           SKY/WX    TMP DP  RH WIND       PRES   REMARKS
CHADRON        LGT RAIN  50  48  93 W9        29.77R FOG
ALLIANCE       CLOUDY    49  46  90 NW15      29.74R
SCOTTSBLUFF    LGT RAIN  48  45  89 NW20      29.80R FOG
SIDNEY         CLOUDY    49  44  83 NW18G28   29.79R

...WESTERN AND NORTH CENTRAL NEBRASKA...

CITY           SKY/WX    TMP DP  RH WIND       PRES   REMARKS
VALENTINE      CLOUDY    58  56  93 W3        29.62S
AINSWORTH      CLOUDY    58  58 100 CALM      29.62S
ONEILL         CLOUDY    59  57  94 S9        29.63R
BROKEN BOW     CLOUDY    59  57  93 S8        29.63R FOG
IMPERIAL       MOCLDY    57  52  83 NW17      29.71R
NORTH PLATTE   PTCLDY    53  52  96 W5        29.64S
MCCOOK         CLEAR     58  53  84 W6        29.65R

...EASTERN NEBRASKA...

CITY           SKY/WX    TMP DP  RH WIND       PRES   REMARKS
NORFOLK        CLOUDY    62  59  90 S20G28    29.64S
SO SIOUX CITY  LGT RAIN  62  58  86 SE21G29   29.65F
TEKAMAH        RAIN      63  60  90 SE23G38   29.71F FOG
COLUMBUS       CLOUDY    61  54  77 SE17G28   29.66F
ALBION         CLOUDY    60  56  86 SE10      29.64R
OMAHA EPPLEY   RAIN      65  62  90 S22G28    29.75F FOG
OFFUTT AFB     TSTM      63  59  88 S21G30    29.77R FOG
MILLARD        RAIN      65  62  92 SE7       29.74S
LINCOLN        HVY RAIN  60  59  96 SE12      29.74S FOG
NEBRASKA CITY  RAIN      67  56  67 S22G36    29.72F
BEATRICE       HVY RAIN  59  58  98 NE9G26    29.72R
FALLS CITY     CLOUDY    68  56  65 SE20G31   29.75F

...NORTHERN KANSAS...

CITY           SKY/WX    TMP DP  RH WIND       PRES   REMARKS
GOODLAND       CLOUDY    57  51  80 W9        29.73R
HILL CITY      LGT RAIN  62  59  90 NW3       29.66S
NORTON         CLOUDY    61  52  72 S6        29.66R
PHILLIPSBURG   TSTM      66  66 100 S15       29.66R
HAYS           MOCLDY    64  55  72 S22G31    29.68S
RUSSELL        MOCLDY    66  60  81 S26G37    29.68R
CONCORDIA      MOCLDY    67  59  75 S23G32    29.66R
SALINA         CLOUDY    70  62  76 S26G41    29.70R
TOPEKA         MOCLDY    69  57  65 S21G29    29.80F



USA.gov is the U.S. government's official web portal to all federal, state and local government web resources and services.